User: anonymous   Login
Location: Palomar Mountain Lodge
(33.3110°N, 116.8495°W)
Time: 16:37:38
(UTC-07:00)
Language:

Cosmos 1602 Rocket - Orbit

View from above orbital plane
View from above orbital plane
View from above satellite
View from above satellite

Ground track
Ground track

The orbit data is extracted from the following two-line orbital elements,

1 15332U 84105B   19288.04249803  .00000064  00000-0  48482-5 0  9991
2 15332  82.5315 113.6374 0022693  87.8983  27.6779 14.83398397892574
Epoch (UTC): 15 October 2019 01:01:11
Eccentricity: 0.0022693
inclination: 82.5315°
perigee height: 603 km
apogee height: 634 km
right ascension of ascending node: 113.6374°
argument of perigee: 87.8983°
revolutions per day: 14.83398397
mean anomaly at epoch: 27.6779°
orbit number at epoch: 89257

The dashed part of the orbit path shows where the satellite is in the earth's shadow,  

DLR